Allure of the Seas — C6XS8 — position and weather

sailwx.info

Track history (hours):
 
Tides and Currents Weather Stations Pressure Air Temp Water Temp Dewpoint Dewpoint Depression Visibility Wind Speed Wind Dir Waves Ship Positions

Allure of the Seas

Last reported at 2019-Jul-19 12:00 UTC. Time now 2019-Jul-20 01:18 UTC.
Position N 21°54' W 070°42'.

; draft 9.3 m.

Type: Passenger vessel. MMSI: 311020700.

Wind from 080 at 19 knots

Barometer 1020.1 mb
Air temperature 29.4 ° C
Visibility: greater than 10.8 NM
Dewpoint 24.4 ° C
Water temperature 28.9 ° C

Date/timePositionNaut miles runAvg speedWind from/ knotsBaromVisibWave heightAir tempDewpointWater temp
2019-Jul-19 12:00N 21°54' W 070°42'11519.1 080 / 191020.110.8 29.424.428.9
2019-Jul-19 06:00N 20°42' W 069°06'21617.9 100 / 181019.110.8 28.723.529.0
2019-Jul-18 17:56N 18°27' W 066°07'0 0.4
2019-Jul-18 16:52N 18°28' W 066°07'0 0.0
2019-Jul-18 14:22N 18°28' W 066°07'0 0.0
2019-Jul-18 13:04N 18°28' W 066°07'0 0.0
2019-Jul-18 12:28N 18°28' W 066°07'0 0.0
2019-Jul-18 11:58N 18°28' W 066°07'0 0.0
2019-Jul-18 10:40N 18°28' W 066°07'0 1.1
2019-Jul-18 10:30N 18°28' W 066°07'3 6.8
2019-Jul-18 10:00N 18°31' W 066°08'612.0
2019-Jul-18 09:31N 18°35' W 066°03'2815.9
2019-Jul-18 07:45N 18°31' W 065°34'416.3
2019-Jul-18 07:30N 18°30' W 065°30'917.1
2019-Jul-18 07:01N 18°29' W 065°21'917.7
2019-Jul-18 06:31N 18°26' W 065°12'918.0
2019-Jul-18 06:01N 18°18' W 065°08'6387.4
2019-Jul-18 06:00N 18°12' W 065°06'511.3 090 / 221018.510.8 28.423.228.8
2019-Jul-18 05:30N 18°13' W 065°00'918.9
2019-Jul-18 05:00N 18°11' W 064°51'1119.0
2019-Jul-18 04:26N 18°10' W 064°39'7518.2
2019-Jul-18 00:21N 17°50' W 063°24'618.6
2019-Jul-18 00:01N 17°48' W 063°18'918.4
2019-Jul-17 23:31N 17°44' W 063°09'1019.0
2019-Jul-17 23:00N 17°34' W 063°06'19 1.5
2019-Jul-17 10:29N 17°18' W 062°56'2615.7
2019-Jul-17 08:48N 17°41' W 063°09'718.0
2019-Jul-17 08:23N 17°47' W 063°14'717.8
2019-Jul-17 08:00N 17°51' W 063°19'1118.0
2019-Jul-17 07:24N 17°59' W 063°27'2820.2
2019-Jul-17 06:00N 18°24' W 063°42'31717.6 080 / 291016.010.8 27.821.228.9
2019-Jul-16 12:00N 21°18' W 068°24'10918.2 080 / 201019.710.8 28.723.028.8
2019-Jul-16 06:00N 22°12' W 070°06'10918.1 080 / 201018.210.8 28.422.729.1
2019-Jul-16 00:00N 23°06' W 071°48'22018.3 080 / 201018.010.8 29.021.3
2019-Jul-15 12:00N 24°54' W 075°18'11418.9 110 / 141019.210.8 28.423.229.6
2019-Jul-15 06:00N 25°42' W 077°12'13717.8 070 / 141019.210.8 29.123.829.4
2019-Jul-14 22:16N 26°07' W 079°42'518.1
2019-Jul-14 22:00N 26°07' W 079°47'918.1
2019-Jul-14 21:30N 26°07' W 079°57'714.1
2019-Jul-14 21:00N 26°06' W 080°05'2 4.1
2019-Jul-14 20:30N 26°05' W 080°07'0 0.0
2019-Jul-14 19:58N 26°05' W 080°07'0 0.0
2019-Jul-14 19:28N 26°05' W 080°07'0 0.0
2019-Jul-14 18:58N 26°05' W 080°07'0 0.0
2019-Jul-14 18:28N 26°05' W 080°07'0 0.0
2019-Jul-14 17:58N 26°05' W 080°07'0 0.0
2019-Jul-14 17:28N 26°05' W 080°07'0 0.0
2019-Jul-14 16:58N 26°05' W 080°07'0 0.0
2019-Jul-14 16:28N 26°05' W 080°07'0 0.0
2019-Jul-14 15:58N 26°05' W 080°07'0 0.0
2019-Jul-14 15:28N 26°05' W 080°07'0 0.0
2019-Jul-14 14:58N 26°05' W 080°07'0 0.0
2019-Jul-14 14:28N 26°05' W 080°07'0 0.0
2019-Jul-14 13:58N 26°05' W 080°07'0 0.0
2019-Jul-14 13:28N 26°05' W 080°07'0 0.0
2019-Jul-14 12:58N 26°05' W 080°07'0 0.0
2019-Jul-14 12:28N 26°05' W 080°07'0 0.0
2019-Jul-14 11:58N 26°05' W 080°07'0 0.0
2019-Jul-14 11:28N 26°05' W 080°07'0 0.0
2019-Jul-14 10:58N 26°05' W 080°07'0 0.0
2019-Jul-14 10:28N 26°05' W 080°07'0 0.0
2019-Jul-14 09:58N 26°05' W 080°07'2 3.5
2019-Jul-14 09:30N 26°06' W 080°05'4 8.5
2019-Jul-14 09:00N 26°05' W 080°01'713.1
2019-Jul-14 08:30N 26°02' W 079°54'612.9
2019-Jul-14 08:00N 25°60' W 079°48'714.4
2019-Jul-14 07:30N 25°55' W 079°41'918.0
2019-Jul-14 07:00N 25°46' W 079°40'918.3
2019-Jul-14 06:30N 25°37' W 079°38'1326.1
2019-Jul-14 06:00N 25°24' W 079°36'10417.4 090 / 221020.710.8 29.623.630.1
2019-Jul-14 00:00N 23°42' W 079°12'20016.6 090 / 201018.010.8 30.024.526.0
2019-Jul-13 12:00N 21°36' W 076°24'10918.2 090 / 201017.510.8 29.923.928.6
2019-Jul-13 06:00N 20°54' W 074°36'163 9.1 090 / 201017.210.8 28.422.729.1
2019-Jul-12 12:00N 19°54' W 071°54'11318.8 100 / 171016.810.8 27.822.429.2
2019-Jul-12 06:00N 19°54' W 069°54'23118.3 110 / 171016.310.8 28.021.928.7
2019-Jul-11 17:22N 18°27' W 066°07'0 0.0
2019-Jul-11 10:37N 18°28' W 066°07'0 2.2
2019-Jul-11 10:30N 18°27' W 066°07'4 7.3
2019-Jul-11 09:59N 18°31' W 066°08'510.1
2019-Jul-11 09:27N 18°35' W 066°04'2713.0
2019-Jul-11 07:22N 18°31' W 065°36'513.2
2019-Jul-11 07:00N 18°30' W 065°31'713.3
2019-Jul-11 06:30N 18°29' W 065°24'713.2
2019-Jul-11 06:00N 18°28' W 065°17'713.2
2019-Jul-11 05:30N 18°25' W 065°11'815.7
2019-Jul-11 05:01N 18°17' W 065°08'816.4
2019-Jul-11 04:30N 18°13' W 065°01'816.9
2019-Jul-11 04:00N 18°11' W 064°52'917.0
2019-Jul-11 03:28N 18°09' W 064°43'8417.0
2019-Jul-10 22:31N 18°01' W 063°14'416.6
2019-Jul-10 22:16N 18°00' W 063°10'514.6
2019-Jul-10 21:54N 18°00' W 063°05'2 1.7
2019-Jul-10 20:53N 18°01' W 063°03'0 0.0
2019-Jul-10 19:05N 18°01' W 063°03'0 0.0
2019-Jul-10 18:41N 18°01' W 063°03'0 0.0
2019-Jul-10 18:11N 18°01' W 063°03'0 0.0
2019-Jul-10 17:56N 18°01' W 063°03'0 0.0
2019-Jul-10 17:08N 18°01' W 063°03'0 0.0
2019-Jul-10 16:44N 18°01' W 063°03'0 0.0
2019-Jul-10 16:23N 18°01' W 063°03'0 0.0
2019-Jul-10 15:59N 18°01' W 063°03'0 0.0
2019-Jul-10 15:29N 18°01' W 063°03'0 0.0
2019-Jul-10 14:59N 18°01' W 063°03'0 0.0
2019-Jul-10 11:35N 18°01' W 063°03'0 0.5
2019-Jul-10 11:30N 18°01' W 063°03'4 7.5
2019-Jul-10 10:56N 18°00' W 063°07'27416.2
2019-Jul-09 18:00N 20°36' W 067°06'10216.9 110 / 211019.010.8 30.030.030.0
2019-Jul-09 12:00N 21°24' W 068°42'   130 / 171019.210.8 28.723.928.8
Track history (hours):
 
Tides and Currents Weather Stations Pressure Air Temp Water Temp Dewpoint Dewpoint Depression Visibility Wind Speed Wind Dir Waves Ship Positions

Allure of the Seas

Last reported at 2019-Jul-19 12:00 UTC. Time now 2019-Jul-20 01:18 UTC.
Position N 21°54' W 070°42'.

; draft 9.3 m.

Type: Passenger vessel. MMSI: 311020700.

Wind from 080 at 19 knots

Barometer 1020.1 mb
Air temperature 29.4 ° C
Visibility: greater than 10.8 NM
Dewpoint 24.4 ° C
Water temperature 28.9 ° C

Date/timePositionNaut miles runAvg speedWind from/ knotsBaromVisibWave heightAir tempDewpointWater temp
2019-Jul-19 12:00N 21°54' W 070°42'11519.1 080 / 191020.110.8 29.424.428.9
2019-Jul-19 06:00N 20°42' W 069°06'21617.9 100 / 181019.110.8 28.723.529.0
2019-Jul-18 17:56N 18°27' W 066°07'0 0.4
2019-Jul-18 16:52N 18°28' W 066°07'0 0.0
2019-Jul-18 14:22N 18°28' W 066°07'0 0.0
2019-Jul-18 13:04N 18°28' W 066°07'0 0.0
2019-Jul-18 12:28N 18°28' W 066°07'0 0.0
2019-Jul-18 11:58N 18°28' W 066°07'0 0.0
2019-Jul-18 10:40N 18°28' W 066°07'0 1.1
2019-Jul-18 10:30N 18°28' W 066°07'3 6.8
2019-Jul-18 10:00N 18°31' W 066°08'612.0
2019-Jul-18 09:31N 18°35' W 066°03'2815.9
2019-Jul-18 07:45N 18°31' W 065°34'416.3
2019-Jul-18 07:30N 18°30' W 065°30'917.1
2019-Jul-18 07:01N 18°29' W 065°21'917.7
2019-Jul-18 06:31N 18°26' W 065°12'918.0
2019-Jul-18 06:01N 18°18' W 065°08'6387.4
2019-Jul-18 06:00N 18°12' W 065°06'511.3 090 / 221018.510.8 28.423.228.8
2019-Jul-18 05:30N 18°13' W 065°00'918.9
2019-Jul-18 05:00N 18°11' W 064°51'1119.0
2019-Jul-18 04:26N 18°10' W 064°39'7518.2
2019-Jul-18 00:21N 17°50' W 063°24'618.6
2019-Jul-18 00:01N 17°48' W 063°18'918.4
2019-Jul-17 23:31N 17°44' W 063°09'1019.0
2019-Jul-17 23:00N 17°34' W 063°06'19 1.5
2019-Jul-17 10:29N 17°18' W 062°56'2615.7
2019-Jul-17 08:48N 17°41' W 063°09'718.0
2019-Jul-17 08:23N 17°47' W 063°14'717.8
2019-Jul-17 08:00N 17°51' W 063°19'1118.0
2019-Jul-17 07:24N 17°59' W 063°27'2820.2
2019-Jul-17 06:00N 18°24' W 063°42'31717.6 080 / 291016.010.8 27.821.228.9
2019-Jul-16 12:00N 21°18' W 068°24'10918.2 080 / 201019.710.8 28.723.028.8
2019-Jul-16 06:00N 22°12' W 070°06'10918.1 080 / 201018.210.8 28.422.729.1
2019-Jul-16 00:00N 23°06' W 071°48'22018.3 080 / 201018.010.8 29.021.3
2019-Jul-15 12:00N 24°54' W 075°18'11418.9 110 / 141019.210.8 28.423.229.6
2019-Jul-15 06:00N 25°42' W 077°12'13717.8 070 / 141019.210.8 29.123.829.4
2019-Jul-14 22:16N 26°07' W 079°42'518.1
2019-Jul-14 22:00N 26°07' W 079°47'918.1
2019-Jul-14 21:30N 26°07' W 079°57'714.1
2019-Jul-14 21:00N 26°06' W 080°05'2 4.1
2019-Jul-14 20:30N 26°05' W 080°07'0 0.0
2019-Jul-14 19:58N 26°05' W 080°07'0 0.0
2019-Jul-14 19:28N 26°05' W 080°07'0 0.0
2019-Jul-14 18:58N 26°05' W 080°07'0 0.0
2019-Jul-14 18:28N 26°05' W 080°07'0 0.0
2019-Jul-14 17:58N 26°05' W 080°07'0 0.0
2019-Jul-14 17:28N 26°05' W 080°07'0 0.0
2019-Jul-14 16:58N 26°05' W 080°07'0 0.0
2019-Jul-14 16:28N 26°05' W 080°07'0 0.0
2019-Jul-14 15:58N 26°05' W 080°07'0 0.0
2019-Jul-14 15:28N 26°05' W 080°07'0 0.0
2019-Jul-14 14:58N 26°05' W 080°07'0 0.0
2019-Jul-14 14:28N 26°05' W 080°07'0 0.0
2019-Jul-14 13:58N 26°05' W 080°07'0 0.0
2019-Jul-14 13:28N 26°05' W 080°07'0 0.0
2019-Jul-14 12:58N 26°05' W 080°07'0 0.0
2019-Jul-14 12:28N 26°05' W 080°07'0 0.0
2019-Jul-14 11:58N 26°05' W 080°07'0 0.0
2019-Jul-14 11:28N 26°05' W 080°07'0 0.0
2019-Jul-14 10:58N 26°05' W 080°07'0 0.0
2019-Jul-14 10:28N 26°05' W 080°07'0 0.0
2019-Jul-14 09:58N 26°05' W 080°07'2 3.5
2019-Jul-14 09:30N 26°06' W 080°05'4 8.5
2019-Jul-14 09:00N 26°05' W 080°01'713.1
2019-Jul-14 08:30N 26°02' W 079°54'612.9
2019-Jul-14 08:00N 25°60' W 079°48'714.4
2019-Jul-14 07:30N 25°55' W 079°41'918.0
2019-Jul-14 07:00N 25°46' W 079°40'918.3
2019-Jul-14 06:30N 25°37' W 079°38'1326.1
2019-Jul-14 06:00N 25°24' W 079°36'10417.4 090 / 221020.710.8 29.623.630.1
2019-Jul-14 00:00N 23°42' W 079°12'20016.6 090 / 201018.010.8 30.024.526.0
2019-Jul-13 12:00N 21°36' W 076°24'10918.2 090 / 201017.510.8 29.923.928.6
2019-Jul-13 06:00N 20°54' W 074°36'163 9.1 090 / 201017.210.8 28.422.729.1
2019-Jul-12 12:00N 19°54' W 071°54'11318.8 100 / 171016.810.8 27.822.429.2
2019-Jul-12 06:00N 19°54' W 069°54'23118.3 110 / 171016.310.8 28.021.928.7
2019-Jul-11 17:22N 18°27' W 066°07'0 0.0
2019-Jul-11 10:37N 18°28' W 066°07'0 2.2
2019-Jul-11 10:30N 18°27' W 066°07'4 7.3
2019-Jul-11 09:59N 18°31' W 066°08'510.1
2019-Jul-11 09:27N 18°35' W 066°04'2713.0
2019-Jul-11 07:22N 18°31' W 065°36'513.2
2019-Jul-11 07:00N 18°30' W 065°31'713.3
2019-Jul-11 06:30N 18°29' W 065°24'713.2
2019-Jul-11 06:00N 18°28' W 065°17'713.2
2019-Jul-11 05:30N 18°25' W 065°11'815.7
2019-Jul-11 05:01N 18°17' W 065°08'816.4
2019-Jul-11 04:30N 18°13' W 065°01'816.9
2019-Jul-11 04:00N 18°11' W 064°52'917.0
2019-Jul-11 03:28N 18°09' W 064°43'8417.0
2019-Jul-10 22:31N 18°01' W 063°14'416.6
2019-Jul-10 22:16N 18°00' W 063°10'514.6
2019-Jul-10 21:54N 18°00' W 063°05'2 1.7
2019-Jul-10 20:53N 18°01' W 063°03'0 0.0
2019-Jul-10 19:05N 18°01' W 063°03'0 0.0
2019-Jul-10 18:41N 18°01' W 063°03'0 0.0
2019-Jul-10 18:11N 18°01' W 063°03'0 0.0
2019-Jul-10 17:56N 18°01' W 063°03'0 0.0
2019-Jul-10 17:08N 18°01' W 063°03'0 0.0
2019-Jul-10 16:44N 18°01' W 063°03'0 0.0
2019-Jul-10 16:23N 18°01' W 063°03'0 0.0
2019-Jul-10 15:59N 18°01' W 063°03'0 0.0
2019-Jul-10 15:29N 18°01' W 063°03'0 0.0
2019-Jul-10 14:59N 18°01' W 063°03'0 0.0
2019-Jul-10 11:35N 18°01' W 063°03'0 0.5
2019-Jul-10 11:30N 18°01' W 063°03'4 7.5
2019-Jul-10 10:56N 18°00' W 063°07'27416.2
2019-Jul-09 18:00N 20°36' W 067°06'10216.9 110 / 211019.010.8 30.030.030.0
2019-Jul-09 12:00N 21°24' W 068°42'   130 / 171019.210.8 28.723.928.8

Dump ship's entire track history